"TOA5","AWS1","CR1000","7964","CR1000.Std.14","CPU:AWS1_114.CR1","64363","TBL110"
"TIMESTAMP","RECORD","Wind_spd_WVc(1)","Wind_spd_WVc(2)","Air_Temp_Avg","Humidity_Avg","SW_upper_Wm2_Avg","Rain_Tot","Press_Avg","Issui_Tot","Depth_cm","SR50A_Raw","Quality","Ground_Temp_Avg(1)","Ground_Temp_Avg(2)","SW_lower_Wm2_Avg","Albedo_Avg","SWC_per(1)","SWC_per(2)","Period(1)","Period(2)"
"TS","RN","","","","","","","","","","","","","","","","","","",""
"","","WVc","WVc","Avg","Avg","Avg","Tot","Avg","Tot","Smp","Smp","Smp","Avg","Avg","Avg","Avg","Smp","Smp","Smp","Smp"
"2017-05-13 00:00:00",287773,1.28,153,11.07,65.72,0,0,865.134,0,-5.776,3.173,193,10.86,9.42,3.38785,0,51.77,60.09,33.73,35.7
"2017-05-13 00:10:00",287774,0.717,127.9,11.09,65.44,0,0,864.9065,0,-5.217,3.168,176,10.73,9.4,3.122582,0,51.77,60.09,33.73,35.7
"2017-05-13 00:20:00",287775,1.312,136,11.29,63.51,0,0,864.738,0,-4.829,3.163,189,10.72,9.39,3.71754,0,51.82,60.09,33.75,35.7
"2017-05-13 00:30:00",287776,1.156,150.7,11.69,58.98,0,0,864.5106,0,-5.59,3.169,186,10.73,9.37,4.403447,0,51.82,60.09,33.75,35.7
"2017-05-13 00:40:00",287777,0.717,130,11.61,60.04,0,0,864.3757,0,-5.875,3.173,182,10.76,9.34,3.884279,0,51.82,60.09,33.75,35.7
"2017-05-13 00:50:00",287778,0.216,150,11.27,63.84,0,0,864.3441,0,-5.526,3.172,183,10.76,9.33,2.88763,0,51.82,60.09,33.75,35.7
"2017-05-13 01:00:00",287779,0.409,325.6,11.29,61.82,0,0,864.3715,0,-6.082,3.176,178,10.7,9.33,3.528063,0,51.82,60.09,33.75,35.7
"2017-05-13 01:10:00",287780,0.727,78.22,10.3,73.08,0,0.5,864.3694,0,-5.643,3.178,196,10.71,9.33,2.088037,0,51.82,60.09,33.75,35.7
"2017-05-13 01:20:00",287781,0.417,116.2,10.16,77,0,0,864.4031,0,-5.339,3.175,195,10.67,9.34,2.262356,0,51.82,60.09,33.75,35.7
"2017-05-13 01:30:00",287782,0.658,11.98,10.21,80.4,0,0,864.2388,0,-5.567,3.177,177,10.69,9.34,2.118353,0,51.88,60.09,33.76,35.7
"2017-05-13 01:40:00",287783,0.71,106,10.27,86.3,0,0,864.1039,0,-5.082,3.172,193,10.67,9.33,1.777295,0,51.88,60.09,33.76,35.7
"2017-05-13 01:50:00",287784,0.374,26.93,10.21,90.9,0,0,863.8555,0,-5.289,3.175,179,10.56,9.33,1.417288,0,51.82,60.09,33.75,35.7
"2017-05-13 02:00:00",287785,0.33,42.54,10.1,94.9,0,0,863.708,0,-5.183,3.173,188,10.55,9.33,1.212653,0,51.88,60.09,33.76,35.7
"2017-05-13 02:10:00",287786,0.314,336.5,10.13,94.2,0,0,863.4426,0,-5.288,3.175,182,10.59,9.33,1.133073,0,51.88,60.09,33.76,35.7
"2017-05-13 02:20:00",287787,0.375,222.4,9.93,97.6,0,0,863.2678,0,-5.14,3.175,191,10.6,9.33,0.8147513,0,51.82,60.09,33.75,35.7
"2017-05-13 02:30:00",287788,1.354,131.5,10.45,81.1,0,0,863.1583,0,-5.829,3.174,191,10.59,9.33,3.012685,0,51.82,60.09,33.75,35.7
"2017-05-13 02:40:00",287789,1.614,146.5,11.11,67.99,0,0,863.0846,0,-5.547,3.171,185,10.53,9.33,4.464079,0,51.82,60.09,33.75,35.7
"2017-05-13 02:50:00",287790,1.829,152.5,11.23,65.87,0,0,862.9877,0,-5.523,3.171,184,10.47,9.34,5.422833,0,51.88,60.09,33.76,35.7
"2017-05-13 03:00:00",287791,2.236,170.4,11.21,64.34,0,0,862.8129,0,-5.421,3.17,182,10.46,9.35,5.419044,0,51.82,60.09,33.75,35.7
"2017-05-13 03:10:00",287792,2.149,162,11.03,65.43,0,0,862.6233,0,-5.4,3.171,177,10.52,9.35,5.142407,0,51.88,60.09,33.76,35.7
"2017-05-13 03:20:00",287793,1.907,156.1,10.92,65.9,0,0,862.4043,0,-5.578,3.173,190,10.53,9.34,4.808928,0,51.82,60.09,33.75,35.7
"2017-05-13 03:30:00",287794,1.837,140.6,10.75,66.59,0,0,862.3601,0,-5.761,3.176,186,10.41,9.33,4.308708,0,51.88,60.09,33.76,35.7
"2017-05-13 03:40:00",287795,2.17,140.7,10.65,65.89,0,0,862.2231,0,-5.634,3.175,186,10.37,9.33,4.37313,0,51.88,60.09,33.76,35.7
"2017-05-13 03:50:00",287796,1.373,154.4,10.4,68.23,0,0,862.0588,0,-4.98,3.171,187,10.39,9.33,3.46743,0,51.88,60.09,33.76,35.7
"2017-05-13 04:00:00",287797,1.688,150.6,10.22,69.73,0,0,861.8925,0,-5.668,3.178,180,10.42,9.33,3.46743,0,51.88,60.09,33.76,35.7
"2017-05-13 04:10:00",287798,1.291,179.8,10,72.3,0,0,862.0883,0,-5.291,3.176,185,10.41,9.33,2.963421,0,51.88,60.09,33.76,35.7
"2017-05-13 04:20:00",287799,1.547,147.1,10.05,71.83,0,0,862.2758,0,-5.264,3.175,186,10.31,9.34,3.183215,0,51.88,60.09,33.76,35.7
"2017-05-13 04:30:00",287800,0.666,342.1,9.4,80.7,0,0,862.537,0,-5.027,3.179,191,10.31,9.36,1.477921,0,51.88,60.09,33.76,35.7
"2017-05-13 04:40:00",287801,0.612,137.5,8.94,86.1,0,0.5,862.4801,0,-4.925,3.178,183,10.34,9.4,1.32255,0,51.88,60.09,33.76,35.7
"2017-05-13 04:50:00",287802,0.984,165.6,8.9,86.4,0,0,862.2189,0,-4.977,3.179,192,10.37,9.42,1.57266,0,51.88,60.09,33.76,35.7
"2017-05-13 05:00:00",287803,0.893,149.1,9.05,85.7,0.4677055,0,862.0925,0,-5.028,3.179,190,10.31,9.42,1.796245,0.944,51.88,60.09,33.76,35.7
"2017-05-13 05:10:00",287804,1.413,156.1,9.04,87.7,3.71418,0.5,862.0778,0,-4.899,3.176,199,10.21,9.42,2.19039,0.688,51.88,60.09,33.76,35.7
"2017-05-13 05:20:00",287805,0.848,155.7,8.95,90.8,7.519083,0,862.1726,0,-5.218,3.181,200,10.27,9.43,2.440603,0.352,51.88,60.09,33.76,35.7
"2017-05-13 05:30:00",287806,1.946,149.6,9.14,89.2,12.45645,0,861.6818,0,-5.113,3.176,199,10.31,9.45,3.793765,0.317,51.88,60.09,33.76,35.7
"2017-05-13 05:40:00",287807,1.746,154.7,9.4,83.8,6.454263,0,861.4164,0,-4.857,3.175,188,10.31,9.45,3.520884,0.557,51.94,60.09,33.77,35.7
"2017-05-13 05:50:00",287808,2.454,151.5,9.39,82.9,8.843813,0.5,860.9742,0,-5.279,3.177,182,10.24,9.44,2.952285,0.354,51.94,60.09,33.77,35.7
"2017-05-13 06:00:00",287809,2.299,161.9,9.96,78.42,14.71171,0,860.5655,0,-5.19,3.173,181,10.16,9.43,3.744236,0.257,51.94,60.09,33.77,35.7
"2017-05-13 06:10:00",287810,1.342,153,9.98,80.1,22.26603,0,860.5508,0,-4.474,3.165,194,10.13,9.43,4.763662,0.215,51.99,60.15,33.79,35.71
"2017-05-13 06:20:00",287811,1.192,148.7,10.54,77.58,24.49857,0.5,860.4792,0,-5.238,3.173,179,10.18,9.43,5.809633,0.238,52.05,60.15,33.8,35.71
"2017-05-13 06:30:00",287812,0.919,340.1,9.44,90.5,19.69518,0,861.0331,0,-4.802,3.177,193,10.2,9.42,3.376573,0.173,52.1,60.15,33.81,35.71
"2017-05-13 06:40:00",287813,0.68,34.53,8.69,100,27.90957,0.5,861.1384,0,-4.499,3.175,184,10.19,9.42,3.747941,0.134,52.16,60.15,33.83,35.71
"2017-05-13 06:50:00",287814,0.702,35.63,8.64,100,30.56617,0.5,861.3386,0,-4.451,3.176,182,10.1,9.42,4.100331,0.134,52.16,60.21,33.83,35.73
"2017-05-13 07:00:00",287815,1.168,165.2,8.59,98.9,65.27839,0,861.1742,0,-4.396,3.174,192,10.04,9.42,8.302923,0.127,52.32,60.21,33.87,35.73
"2017-05-13 07:10:00",287816,1.268,169.3,8.65,95.4,46.42544,0.5,861.1827,0,-4.451,3.175,194,10.04,9.42,5.635159,0.121,52.44,60.27,33.89,35.74
"2017-05-13 07:20:00",287817,0.744,115.7,8.35,100,30.53164,0.5,861.6102,0,-4.156,3.174,192,10.09,9.41,3.448618,0.113,52.55,60.27,33.92,35.74
"2017-05-13 07:30:00",287818,1.817,143.2,8.23,100,41.99075,0.5,861.0942,0,-4.717,3.179,194,10.13,9.41,4.695636,0.112,52.72,60.33,33.96,35.75
"2017-05-13 07:40:00",287819,2.181,159.4,8.72,90.4,49.78233,0,860.5676,0,-5.121,3.179,196,10.14,9.39,5.999482,0.12,52.88,60.33,34,35.75
"2017-05-13 07:50:00",287820,1.036,172.7,9.04,87.6,56.28162,0.5,860.4455,0,-4.771,3.177,193,10.14,9.39,6.666729,0.118,52.94,60.44,34.02,35.78
"2017-05-13 08:00:00",287821,0.525,150.8,8.72,97,60.97163,0.5,860.5002,0,-4.522,3.176,179,10.14,9.38,6.966205,0.114,53.05,60.56,34.04,35.81
"2017-05-13 08:10:00",287822,0.964,139.8,8.64,100,67.35616,0,860.2581,0,-4.293,3.173,186,10.08,9.36,7.587872,0.113,53.05,60.68,34.04,35.83
"2017-05-13 08:20:00",287823,1.906,157.4,9.21,94.9,60.29276,0.5,859.6367,0,-4.151,3.166,173,10.03,9.37,7.197541,0.119,53.11,60.74,34.06,35.85
"2017-05-13 08:30:00",287824,1.166,142.9,10.03,88.7,79.47807,0,859.4282,0,-4.085,3.163,192,10.01,9.39,9.808775,0.124,53.11,60.92,34.06,35.89
"2017-05-13 08:40:00",287825,1.048,158.3,10.58,89,105.923,0,859.1354,0,-3.97,3.16,190,9.98,9.41,13.39347,0.126,53.16,61.04,34.07,35.92
"2017-05-13 08:50:00",287826,0.711,105,10.41,95.7,102.2724,0,859.087,0,-3.972,3.162,192,9.97,9.43,12.30542,0.12,53.22,61.16,34.08,35.94
"2017-05-13 09:00:00",287827,0.981,182.4,10.27,98.6,123.4773,0.5,858.9185,0,-3.904,3.158,185,9.97,9.42,15.04112,0.122,53.22,61.28,34.08,35.97
"2017-05-13 09:10:00",287828,0.599,38.94,10.66,97.8,117.1434,0,858.9332,0,-4.061,3.161,180,9.96,9.42,13.9343,0.119,53.22,61.4,34.08,36
"2017-05-13 09:20:00",287829,0.74,109.3,10.21,100,112.8153,0,858.6847,0,-4.141,3.163,178,9.98,9.42,12.70638,0.113,53.22,61.46,34.08,36.01
"2017-05-13 09:30:00",287830,0.894,259.3,10.32,100,177.5351,0,858.7985,0,-4.477,3.168,178,9.98,9.42,21.3162,0.12,53.22,61.52,34.08,36.02
"2017-05-13 09:40:00",287831,0.735,295.7,9.19,100,122.1572,0,859.0701,0,-4.316,3.172,187,9.98,9.42,14.33206,0.117,53.22,61.52,34.08,36.02
"2017-05-13 09:50:00",287832,0.35,303.8,8.84,100,80.56695,0,859.0743,0,-4.391,3.173,192,9.99,9.39,9.693654,0.12,53.22,61.58,34.08,36.04
"2017-05-13 10:00:00",287833,0.304,105,9.19,100,158.6382,0,858.8279,0,-4.231,3.168,191,10,9.36,18.81888,0.119,53.16,61.58,34.07,36.04
"2017-05-13 10:10:00",287834,0.559,125.7,9.7,100,207.4641,0,858.7184,0,-4.018,3.163,186,9.97,9.38,24.43119,0.118,53.16,61.58,34.07,36.04
"2017-05-13 10:20:00",287835,0.802,143.5,10.35,100,240.9777,0,858.4762,0,-3.592,3.154,183,9.94,9.41,29.66455,0.123,53.16,61.58,34.07,36.04
"2017-05-13 10:30:00",287836,1.074,194.4,11.55,96.7,266.4734,0,858.3077,0,-4.541,3.158,173,10,9.41,34.36738,0.129,53.16,61.64,34.07,36.05
"2017-05-13 10:40:00",287837,0.687,317.6,10.85,98.5,109.7926,0,858.512,0,-4.47,3.166,192,10.02,9.4,12.13791,0.105,53.11,61.58,34.06,36.04
"2017-05-13 10:50:00",287838,0.416,292.5,9.95,100,64.07547,0,858.7563,0,-4.323,3.166,193,10.02,9.39,6.968972,0.108,53.11,61.58,34.06,36.04
"2017-05-13 11:00:00",287839,0.339,122.1,10,100,163.2287,0.5,858.6889,0,-4.348,3.166,182,10.05,9.36,19.72458,0.121,53.11,61.58,34.06,36.04
"2017-05-13 11:10:00",287840,0.466,136.3,10.37,100,205.1374,0,858.5541,0,-4.131,3.16,181,10.07,9.36,23.78318,0.115,53.05,61.58,34.04,36.04
"2017-05-13 11:20:00",287841,0.33,289.8,10.8,100,134.8953,0,858.394,0,-4.212,3.162,187,10.05,9.36,14.52532,0.108,53.11,61.58,34.06,36.04
"2017-05-13 11:30:00",287842,0.185,47.98,10.48,100,152.4126,0,858.3182,0,-4.032,3.16,181,10.03,9.32,16.8521,0.11,53.05,61.58,34.04,36.04
"2017-05-13 11:40:00",287843,0.302,146.9,10.78,100,191.6487,0.5,858.3077,0,-4.025,3.158,177,10.03,9.33,21.29345,0.111,53.05,61.58,34.04,36.04
"2017-05-13 11:50:00",287844,0.669,154,11.15,100,181.3749,0,858.3014,0,-3.834,3.153,192,10.03,9.32,20.65681,0.114,53.05,61.58,34.04,36.04
"2017-05-13 12:00:00",287845,0.339,350.8,11.7,100,155.9813,0,858.2509,0,-4.544,3.159,190,10.11,9.32,17.2879,0.11,53.11,61.58,34.06,36.04
"2017-05-13 12:10:00",287846,0.442,313.3,11.2,100,156.8342,0.5,858.0802,0,-4.633,3.163,173,10.15,9.29,17.63654,0.112,53.16,61.58,34.07,36.04
"2017-05-13 12:20:00",287847,0.304,353.4,11.18,100,185.71,0,857.8549,0,-4.605,3.162,179,10.12,9.26,20.95239,0.113,53.16,61.64,34.07,36.05
"2017-05-13 12:30:00",287848,0.261,334.5,11.18,100,131.2794,0,857.8085,0,-4.482,3.162,187,10.11,9.26,15.01039,0.114,53.16,61.64,34.07,36.05
"2017-05-13 12:40:00",287849,0.333,321.2,10.71,100,115.7863,0,857.8801,0,-4.158,3.161,196,10.12,9.25,13.3392,0.115,53.16,61.64,34.07,36.05
"2017-05-13 12:50:00",287850,0.254,327.3,10.6,100,144.0725,0,857.8444,0,-4.155,3.16,177,10.22,9.25,16.67021,0.116,53.16,61.7,34.07,36.06
"2017-05-13 13:00:00",287851,0.305,355.9,10.7,100,200.6294,0,857.8464,0,-4.155,3.16,190,10.22,9.25,24.27203,0.12,53.16,61.7,34.07,36.06
"2017-05-13 13:10:00",287852,0.172,117.4,11.11,100,250.603,0,857.7285,0,-4.038,3.155,197,10.2,9.25,28.91043,0.115,53.16,61.64,34.07,36.05
"2017-05-13 13:20:00",287853,0.123,117.2,11.56,100,223.5587,0,857.6484,0,-3.928,3.152,189,10.22,9.28,25.66659,0.114,53.16,61.64,34.07,36.05
"2017-05-13 13:30:00",287854,0.199,140.7,11.65,100,182.7896,0,857.6084,0,-4.111,3.155,190,10.3,9.3,20.77047,0.114,53.11,61.64,34.06,36.05
"2017-05-13 13:40:00",287855,0.348,115.4,11.72,100,275.2305,0,857.3389,0,-4.151,3.153,187,10.27,9.3,33.91598,0.123,53.11,61.64,34.06,36.05
"2017-05-13 13:50:00",287856,0.325,37.16,12.15,100,249.9364,0,857.2916,0,-4.327,3.154,191,10.26,9.28,29.73628,0.117,53.11,61.7,34.06,36.06
"2017-05-13 14:00:00",287857,0.275,303.3,11.87,100,79.87459,0,857.4789,0,-4.26,3.156,193,10.34,9.29,8.674198,0.109,53.11,61.7,34.06,36.06
"2017-05-13 14:10:00",287858,0.215,345.3,11.52,100,71.36333,0,857.5599,0,-4.16,3.157,196,10.38,9.29,7.976673,0.112,53.05,61.7,34.04,36.06
"2017-05-13 14:20:00",287859,0.343,127.1,11.36,100,120.201,0,857.2948,0,-3.927,3.154,191,10.36,9.25,15.24827,0.126,53.05,61.64,34.04,36.05
"2017-05-13 14:30:00",287860,0.163,42.99,11.62,100,152.4106,0,857.4209,0,-4.074,3.153,192,10.35,9.27,19.07961,0.125,53.05,61.7,34.04,36.06
"2017-05-13 14:40:00",287861,0.482,134.4,11.76,100,168.5356,0,857.3892,0,-4.159,3.155,192,10.43,9.28,20.67161,0.122,53,61.7,34.03,36.06
"2017-05-13 14:50:00",287862,0.659,149.8,11.91,100,410.2488,0,856.9727,0,-3.783,3.147,186,10.45,9.29,53.01542,0.13,53.05,61.7,34.04,36.06
"2017-05-13 15:00:00",287863,0.477,137.4,13.1,100,520.2425,0,856.8416,0,-3.955,3.143,188,10.48,9.31,63.0725,0.121,53,61.64,34.03,36.05
"2017-05-13 15:10:00",287864,0.336,2.403,13.7,100,226.6565,0,856.7461,0,-4.571,3.148,189,10.48,9.31,29.36274,0.129,53,61.64,34.03,36.05
"2017-05-13 15:20:00",287865,0.272,307.8,13.14,100,134.2699,0,856.7382,0,-4.501,3.152,190,10.45,9.28,16.70083,0.124,53,61.64,34.03,36.05
"2017-05-13 15:30:00",287866,0.316,327.8,12.63,100,102.8415,0,856.9539,0,-4.738,3.158,194,10.44,9.25,12.83904,0.125,53,61.64,34.03,36.05
"2017-05-13 15:40:00",287867,0.259,357.9,12.02,100,157.1053,0,857.1458,0,-4.297,3.153,193,10.49,9.23,20.938,0.133,52.94,61.58,34.02,36.04
"2017-05-13 15:50:00",287868,0.279,87.3,12.3,100,163.6178,0,857.0843,0,-4.341,3.152,189,10.51,9.23,22.05531,0.135,52.94,61.58,34.02,36.04
"2017-05-13 16:00:00",287869,0.179,60.03,12.41,100,142.9902,0,857.1916,0,-5.036,3.16,180,10.55,9.23,19.24434,0.134,52.88,61.58,34,36.04
"2017-05-13 16:10:00",287870,0.442,149.8,12.4,100,175.8715,0,857.0042,0,-4.754,3.157,193,10.57,9.24,24.3812,0.138,52.88,61.58,34,36.04
"2017-05-13 16:20:00",287871,0.558,137.5,12.44,100,191.8937,0,856.9621,0,-4.652,3.156,189,10.6,9.24,26.76779,0.139,52.88,61.52,34,36.02
"2017-05-13 16:30:00",287872,0.288,101.4,12.57,100,151.2504,0,856.9806,0,-4.539,3.152,184,10.63,9.24,21.29778,0.141,52.83,61.52,33.99,36.02
"2017-05-13 16:40:00",287873,0.058,324.1,12.95,100,116.149,0,857.2109,0,-4.772,3.153,192,10.6,9.25,16.20311,0.139,52.83,61.52,33.99,36.02
"2017-05-13 16:50:00",287874,0.137,246.3,13.16,100,128.042,0,857.218,0,-4.766,3.152,190,10.63,9.26,17.84019,0.139,52.88,61.46,34,36.01
"2017-05-13 17:00:00",287875,0.018,0.787,13.19,100,103.5555,0,857.3897,0,-4.764,3.153,189,10.71,9.25,13.69887,0.132,52.83,61.46,33.99,36.01
"2017-05-13 17:10:00",287876,0.063,246.6,12.95,100,53.47377,0,857.4844,0,-4.996,3.156,185,10.71,9.24,6.38709,0.119,52.83,61.4,33.99,36
"2017-05-13 17:20:00",287877,0.062,182.4,12.87,100,49.226,0,857.6799,0,-4.692,3.154,192,10.69,9.24,5.739228,0.116,52.77,61.4,33.98,36
"2017-05-13 17:30:00",287878,0.032,267.2,12.68,100,37.30562,0,857.7142,0,-4.85,3.156,195,10.68,9.24,4.462595,0.12,52.77,61.4,33.98,36
"2017-05-13 17:40:00",287879,0.166,128.4,12.56,100,56.03616,0,857.7242,0,-5.166,3.16,194,10.76,9.25,6.970573,0.124,52.77,61.4,33.98,36
"2017-05-13 17:50:00",287880,0.105,122.5,12.51,100,38.36473,0,857.7706,0,-5.068,3.159,182,10.82,9.26,4.731835,0.124,52.77,61.4,33.98,36
"2017-05-13 18:00:00",287881,0.053,13.88,12.42,100,16.41648,0,857.982,0,-5.283,3.163,192,10.82,9.26,1.943532,0.118,52.72,61.34,33.96,35.98
"2017-05-13 18:10:00",287882,0.188,2.357,12.1,100,10.69203,0,857.9877,0,-5.043,3.162,178,10.84,9.28,1.379101,0.131,52.72,61.4,33.96,36
"2017-05-13 18:20:00",287883,0.049,12.26,12.02,100,9.191478,0.5,858.1408,0,-4.896,3.16,188,10.85,9.29,1.386754,0.151,52.66,61.34,33.95,35.98
"2017-05-13 18:30:00",287884,0.149,11.74,12.1,100,8.995334,0,858.1689,0,-4.699,3.158,191,10.84,9.3,1.470165,0.163,52.72,61.34,33.96,35.98
"2017-05-13 18:40:00",287885,0.328,8.22,12.1,100,3.662766,0,858.2869,0,-4.776,3.158,192,10.87,9.31,0.6138627,0.167,52.66,61.34,33.95,35.98
"2017-05-13 18:50:00",287886,0.412,51.73,12.17,100,3.128362,0,858.3322,0,-4.732,3.158,196,10.89,9.32,0.6328253,0.2,52.66,61.28,33.95,35.97
"2017-05-13 19:00:00",287887,0.384,85.7,12.09,100,2.409213,0,858.3111,0,-4.71,3.158,188,10.91,9.33,0.5987349,0.269,52.66,61.28,33.95,35.97
"2017-05-13 19:10:00",287888,0.334,28.34,12.06,100,0.003930243,0,858.4807,0,-4.663,3.158,188,10.93,9.33,0.01894754,0,52.66,61.22,33.95,35.96
"2017-05-13 19:20:00",287889,0.222,96.2,12.04,100,0,0,858.5544,0,-4.692,3.159,192,10.93,9.33,0.0113686,0,52.6,61.28,33.94,35.97
"2017-05-13 19:30:00",287890,0.084,139.7,11.99,100,0,0,858.5536,0,-4.741,3.159,182,10.94,9.33,0,0,52.66,61.22,33.95,35.96
"2017-05-13 19:40:00",287891,0.264,123.5,11.91,100,0,0,858.5608,0,-4.74,3.159,182,10.93,9.33,0,0,52.6,61.22,33.94,35.96
"2017-05-13 19:50:00",287892,0.46,146,11.88,100,0,0,858.5748,0,-4.463,3.157,197,10.93,9.33,0,0,52.6,61.16,33.94,35.94
"2017-05-13 20:00:00",287893,0.31,122,11.84,100,0,0,858.5644,0,-4.461,3.157,197,10.93,9.35,0,0,52.6,61.16,33.94,35.94
"2017-05-13 20:10:00",287894,0.311,61.5,11.9,100,0,0,858.757,0,-4.461,3.157,197,10.91,9.39,0.0378949,0,52.6,61.16,33.94,35.94
"2017-05-13 20:20:00",287895,0.373,119.1,11.85,100,0,0,858.8101,0,-4.588,3.158,188,10.91,9.48,0,0,52.55,61.16,33.92,35.94
"2017-05-13 20:30:00",287896,0.07,99.1,11.84,100,0,0,858.8378,0,-4.667,3.159,179,10.89,9.49,0.1098965,0,52.6,61.1,33.94,35.93
"2017-05-13 20:40:00",287897,0.073,12.15,11.86,100,0,0,859.049,0,-4.667,3.159,197,10.89,9.47,0.3941121,0,52.55,61.1,33.92,35.93
"2017-05-13 20:50:00",287898,0.145,13.61,11.85,100,0,0,859.1334,0,-4.769,3.16,188,10.89,9.45,0.1023176,0,52.55,61.1,33.92,35.93
"2017-05-13 21:00:00",287899,0.219,42.81,11.83,100,0,0,859.2597,0,-4.847,3.161,197,10.89,9.43,0.02273725,0,52.55,61.04,33.92,35.92
"2017-05-13 21:10:00",287900,0.143,37.44,11.78,100,0,0,859.3187,0,-4.924,3.162,193,10.89,9.42,0,0,52.55,61.04,33.92,35.92
"2017-05-13 21:20:00",287901,0.029,41.82,11.72,100,0,0,859.3187,0,-5.056,3.164,174,10.89,9.42,0,0,52.49,61.04,33.91,35.92
"2017-05-13 21:30:00",287902,0.397,110.8,11.6,100,0,0,859.3187,0,-5.235,3.166,197,10.91,9.42,0,0,52.49,60.98,33.91,35.9
"2017-05-13 21:40:00",287903,0.262,130.3,11.56,100,0,0,859.2886,0,-5.235,3.166,196,10.93,9.42,0,0,52.49,61.04,33.91,35.92
"2017-05-13 21:50:00",287904,0.138,81.9,11.56,100,0,0,859.3087,0,-5.336,3.167,187,10.92,9.42,0.003789541,0,52.49,60.98,33.91,35.9
"2017-05-13 22:00:00",287905,0.124,73.71,11.51,100,0,0,859.3183,0,-5.365,3.168,183,10.88,9.42,0.0189477,0,52.49,60.98,33.91,35.9
"2017-05-13 22:10:00",287906,0.084,101.7,11.56,100,0,0,859.3839,0,-5.414,3.168,184,10.81,9.42,0.1136862,0,52.49,60.98,33.91,35.9
"2017-05-13 22:20:00",287907,0.013,23.79,11.51,100,0,0,859.5419,0,-5.414,3.168,184,10.81,9.42,0.03410587,0,52.49,60.92,33.91,35.89
"2017-05-13 22:30:00",287908,0.043,305,11.52,100,0,0,859.6008,0,-5.492,3.169,183,10.81,9.43,0.1440025,0,52.44,60.92,33.89,35.89
"2017-05-13 22:40:00",287909,0,0,11.52,100,0,0,859.6578,0,-5.365,3.168,192,10.81,9.43,0.09473852,0,52.44,60.92,33.89,35.89
"2017-05-13 22:50:00",287910,0,0,11.44,100,0,0,859.5882,0,-5.262,3.167,198,10.81,9.47,0.02273714,0,52.44,60.92,33.89,35.89
"2017-05-13 23:00:00",287911,0.005,16.99,11.41,100,0,0,859.7336,0,-5.212,3.167,199,10.82,9.52,0.02273697,0,52.44,60.92,33.89,35.89
"2017-05-13 23:10:00",287912,0.177,106.6,11.35,100,0,0,859.7926,0,-5.188,3.167,199,10.84,9.53,0.08336912,0,52.44,60.86,33.89,35.88
"2017-05-13 23:20:00",287913,0.062,76.81,11.34,100,0,0,859.82,0,-5.291,3.168,198,10.84,9.56,0.07958012,0,52.44,60.86,33.89,35.88
"2017-05-13 23:30:00",287914,0.101,101.1,11.25,100,0,0,859.8242,0,-5.217,3.168,193,10.82,9.59,0,0,52.44,60.86,33.89,35.88
"2017-05-13 23:40:00",287915,0.004,101.4,11.15,100,0,0,859.734,0,-5.168,3.168,193,10.74,9.59,0.231162,0,52.38,60.86,33.88,35.88
"2017-05-13 23:50:00",287916,0.032,105.1,11.09,100,0,0,859.5695,0,-5.319,3.169,193,10.72,9.59,0.2425306,0,52.38,60.8,33.88,35.86
